Location: Proctor
(47.8934°N, 114.3048°W)
Time: 07:25:09
(UTC+00:00)

Vanguard 2 Rocket - Pass Details

Date: 21 June 2024
Orbit: 555 x 3303 km, 32.9° (Epoch: 13 July)

Event Time Altitude Azimuth Distance (km) Brightness Sun altitude
Exits shadow 07:50:19 17° 158° (SSE) 5,576 10.3 -18.6°
Maximum altitude 07:56:26 20° 137° (SE) 5,445 10.4 -18.6°
Drops below altitude 10° 08:08:09 10° 100° (E) 6,092 11.0 -18.4°
Sets 08:14:32 0° 86° (E) 6,839 11.5 -18.2°
